Flag for Colombia Weather past 2 weeks in Villavicencio, Colombia

Now
55 °F

Broken clouds.


Feels Like: 53 °F
Forecast: 67 / 86 °F
Wind: 8 mph from Northeast

Location: Bogota / Eldorado

Current Time: May 23, 2015 at 7:23:36 AM

Latest Report: May 23, 2015 at 7:00 AM


Visibility: N/A

Pressure: 30.41 "Hg

Humidity: 82%

Dew point: 50 °F

Location of VillavicencioLocation

Historic Weather in Villavicencio — Graph

°F

Villavicencio temperature yesterday

Maximum temperature yesterday: 68 °F (at 3:00 PM)
Minimum temperature yesterday: 54 °F (at 1:00 AM)
Average temperature yesterday: 59 °F

Past Weeks' High & Low Weather Summary

 TemperatureHumidityPressure
High68 °F (May 11, 1:00 PM)94% (May 10, 3:00 AM)30.44 "Hg (May 10, 3:00 AM)
Low48 °F (May 12, 5:00 AM)35% (May 11, 4:00 PM)30.23 "Hg (May 13, 5:00 PM)
Average59 °F70%30.34 "Hg
* Reported May 8 6:00 AM — May 23 6:00 AM, Villavicencio, Weather by CustomWeather, © 2015

Note: Actual official high and low records may vary slightly from our data, if they occured in-between our weather recording intervals... More about our weather records

Advertising

Villavicencio weather history for previous 24 hours

 ConditionsComfort  
Time TempWeatherWind HumidityBarometerVisibility
6:00 AM
Sat, May 23
54 °FScattered clouds.7 mph88%30.40 "HgN/A
5:00 AM52 °FPassing clouds.No wind94%30.38 "HgN/A
4:00 AM54 °FPassing clouds.2 mph88%30.38 "HgN/A
3:00 AM52 °FPassing clouds.5 mph88%30.38 "HgN/A
2:00 AM52 °FPassing clouds.2 mph88%30.39 "HgN/A
1:00 AM52 °FPassing clouds.3 mph88%30.40 "HgN/A
12:00 AM55 °FPassing clouds.3 mph77%30.44 "HgN/A
11:00 PM
Fri, May 22
54 °FPassing clouds.7 mph82%30.44 "HgN/A
10:00 PM55 °FPassing clouds.2 mph77%30.43 "HgN/A
9:00 PM57 °FPassing clouds.6 mph72%30.41 "HgN/A
8:00 PM57 °FPassing clouds.5 mph72%30.40 "HgN/A
7:00 PM61 °FPassing clouds.7 mph63%30.36 "HgN/A
6:00 PM64 °FPassing clouds.6 mph46%30.33 "HgN/A
5:00 PM66 °FScattered clouds.9 mph43%30.32 "HgN/A
4:00 PM66 °FScattered clouds.9 mph43%30.32 "HgN/A
3:00 PM68 °FScattered clouds.17 mph46%30.34 "HgN/A
2:00 PM64 °FScattered showers. Scattered clouds.8 mph60%30.36 "HgN/A
1:00 PM66 °FScattered showers. Partly sunny.9 mph52%30.39 "HgN/A
12:00 PM64 °FScattered showers. Broken clouds.9 mph60%30.42 "HgN/A
11:00 AM63 °FScattered showers. Broken clouds.8 mph64%30.43 "HgN/A
10:00 AM63 °FBroken clouds.8 mph64%30.43 "HgN/A
9:00 AM61 °FScattered clouds.7 mph68%30.42 "HgN/A
8:00 AM59 °FScattered clouds.5 mph72%30.41 "HgN/A
7:00 AM55 °FScattered clouds.5 mph88%30.39 "HgN/A
Weather by CustomWeather, © 2015

See weather overviewHow to use our weather pages